Location: Zagreb
(45.8000°N, 16.0000°E)
Time: 22:52:03
(UTC+02:00)

Vanguard 2 - All Passes

Search period start: 09 August 2022 00:00
Search period end: 19 August 2022 00:00
Orbit: 552 x 2934 km, 32.9° (Epoch: 09 August)

Date Brightness Start Highest point End Pass type
(mag) Time Alt. Az. Time Alt. Az. Time Alt. Az.
09 Aug - 07:26:03 10° SSW 07:31:51 27° SSE 07:40:23 10° ESE daylight
09 Aug - 09:32:08 10° WSW 09:40:13 41° S 09:52:51 10° ESE daylight
09 Aug - 11:40:00 10° WSW 11:49:55 37° SSW 12:03:56 10° SE daylight
09 Aug - 13:50:35 10° WSW 13:59:58 21° SSW 14:11:03 10° S daylight
10 Aug - 05:40:54 10° SE 05:41:42 10° SE 05:42:32 10° SE daylight
10 Aug - 07:42:39 10° SW 07:48:41 31° SSE 07:57:48 10° ESE daylight
10 Aug - 09:49:10 10° WSW 09:57:17 40° S 10:09:52 10° ESE daylight
10 Aug - 11:57:23 10° WSW 12:07:01 32° SSW 12:20:12 10° SE daylight
10 Aug - 14:09:33 10° WSW 14:16:54 16° SW 14:25:12 10° S daylight
11 Aug - 05:55:12 10° S 05:58:18 14° SE 06:02:05 10° ESE daylight
11 Aug - 07:59:25 10° SW 08:05:35 33° SSE 08:15:06 10° ESE daylight
11 Aug - 10:06:17 10° WSW 10:14:23 38° S 10:26:45 10° SE daylight
11 Aug - 12:15:01 10° WSW 12:24:05 27° SSW 12:36:07 10° SSE daylight
11 Aug - 14:31:34 10° SW 14:33:49 10° SW 14:36:08 10° SSW daylight
12 Aug - 06:11:06 10° SSW 06:15:00 18° SSE 06:20:06 10° ESE daylight
12 Aug - 08:16:18 10° SW 08:22:34 35° S 08:32:17 10° ESE daylight
12 Aug - 10:23:30 10° WSW 10:31:29 34° S 10:43:26 10° SE daylight
12 Aug - 12:32:58 10° WSW 12:41:09 21° SSW 12:51:31 10° SSE daylight
13 Aug - 06:27:27 10° SSW 06:31:46 22° SSE 06:37:42 10° ESE daylight
13 Aug - 08:33:17 10° WSW 08:39:36 35° S 08:49:22 10° ESE daylight
13 Aug - 10:40:51 10° WSW 10:48:36 30° SSW 10:59:52 10° SE daylight
13 Aug - 12:51:35 10° WSW 12:58:11 16° SSW 13:06:05 10° S daylight
14 Aug - 06:44:04 10° SW 06:48:37 25° SSE 06:55:06 10° ESE daylight
14 Aug - 08:50:22 10° WSW 08:56:39 33° S 09:06:19 10° SE daylight
14 Aug - 10:58:23 10° WSW 11:05:43 25° SSW 11:15:57 10° SSE daylight
14 Aug - 13:12:17 10° SW 13:15:14 11° SSW 13:18:23 10° SSW daylight
15 Aug - 04:57:29 10° SSE 04:58:29 11° SSE 04:59:33 10° SE visible
15 Aug - 07:00:51 10° SW 07:05:33 27° SSE 07:12:21 10° ESE daylight
15 Aug - 09:07:32 10° WSW 09:13:45 30° S 09:23:05 10° SE daylight
15 Aug - 11:16:14 10° WSW 11:22:50 20° SSW 11:31:33 10° SSE daylight
16 Aug - 05:12:45 10° S 05:15:14 14° SSE 05:18:09 10° ESE visible
16 Aug - 07:17:46 10° SW 07:22:32 28° S 07:29:29 10° ESE daylight
16 Aug - 09:24:50 10° WSW 09:30:52 26° S 09:39:38 10° SE daylight
16 Aug - 11:34:42 10° SW 11:39:57 15° SSW 11:46:22 10° S daylight
17 Aug - 05:29:01 10° SSW 05:32:04 17° SSE 05:35:50 10° ESE daylight
17 Aug - 07:34:47 10° SW 07:39:34 27° S 07:46:28 10° SE daylight
17 Aug - 09:42:20 10° WSW 09:47:59 22° SSW 09:55:51 10° SSE daylight
17 Aug - 11:55:49 10° SW 11:57:04 10° SSW 11:58:22 10° SSW daylight
18 Aug - 05:45:37 10° SSW 05:48:58 19° SSE 05:53:13 10° ESE daylight
18 Aug - 07:51:56 10° SW 07:56:38 25° S 08:03:18 10° SE daylight
18 Aug - 10:00:09 10° WSW 10:05:06 18° SSW 10:11:35 10° SSE daylight
